This is the latest recevied weather packets stored in our database for station/object HB9HJL-11. If no packets are shown the sender has not sent any weather packets the latest 10 day(s).
| Time | Temp. | Humidity | Pressure | Rain* | Wind** | Luminosity | Snow |
|---|---|---|---|---|---|---|---|
| 1777454250 | 18.33° C | 42% | 935 hPa | - | - | - | - |
| 1777453350 | 16.67° C | 43% | 935 hPa | - | - | - | - |
| 1777452450 | 16.67° C | 46% | 939 hPa | - | - | - | - |
| 1777451550 | 15° C | 46% | 939 hPa | - | - | - | - |
| 1777450650 | 13.33° C | 49% | 939 hPa | - | - | - | - |
| 1777449750 | 13.33° C | 49% | 941 hPa | - | - | - | - |
| 1777448850 | 12.22° C | 50% | 939 hPa | - | - | - | - |
| 1777447950 | 11.67° C | 51% | 940 hPa | - | - | - | - |
| 1777447049 | 11.67° C | 51% | 940 hPa | - | - | - | - |
| 1777446149 | 11.67° C | 51% | 940 hPa | - | - | - | - |
| 1777445249 | 11.11° C | 51% | 940 hPa | - | - | - | - |
| 1777444349 | 11.67° C | 51% | 940 hPa | - | - | - | - |
| 1777443449 | 11.11° C | 51% | 938 hPa | - | - | - | - |
| 1777442549 | 11.67° C | 51% | 939 hPa | - | - | - | - |
| 1777441649 | 11.67° C | 50% | 937 hPa | - | - | - | - |
| 1777440749 | 11.67° C | 50% | 937 hPa | - | - | - | - |
| 1777439849 | 11.67° C | 49% | 936 hPa | - | - | - | - |
| 1777438949 | 11.67° C | 49% | 936 hPa | - | - | - | - |
| 1777438049 | 11.67° C | 49% | 935 hPa | - | - | - | - |
| 1777437148 | 11.67° C | 48% | 934 hPa | - | - | - | - |
| 1777436248 | 12.22° C | 47% | 933 hPa | - | - | - | - |
| 1777435348 | 12.22° C | 47% | 932 hPa | - | - | - | - |
| 1777434448 | 12.22° C | 46% | 932 hPa | - | - | - | - |
| 1777433548 | 12.22° C | 46% | 931 hPa | - | - | - | - |
| 1777432648 | 12.22° C | 46% | 931 hPa | - | - | - | - |
* Rain since midnight (hover to see other rain measurements)
** Current wind speed in m/s (hover to see current wind gust speed)